Location: Newark
(23.3970°S, 47.6010°W)
Time: 10:41:58
(UTC+00:00)

Tiros 1 despin weight - Pass Details

Date: 27 February 2020
Orbit: 593 x 642 km, 48.2° (Epoch: 06 April)

Event Time Altitude Azimuth Distance (km) Brightness Sun altitude
Rises 20:36:09 0° 222° (SW) 2,962 ? 14.0°
Reaches altitude 10° 20:38:31 10° 219° (SW) 2,048 ? 13.5°
Maximum altitude 20:43:14 70° 136° (SE) 684 ? 12.4°
Drops below altitude 10° 20:47:52 10° 51° (NE) 2,016 ? 11.3°
Sets 20:50:11 0° 49° (NE) 2,913 ? 10.8°
